contact:dominique.lefevre@mio.osupytheas.fr, maurice.libes@osupytheas.fr, didier.mallarino@osupytheas.fr
Project:EMSO http://www.emso-fr.org/EMSO-France
Depth: 2436.0 m
Title:EMSO Ligure Ouest : Data MII capteur MICROCAT
DateTime_Computer,Latitude,Longitude,Temperature,Conductivity,Pressure,DateTime_Instrument
DateTime_Computer,Latitude,Longitude,degC,S m-1,dbar,DateTime_Instrument
2023-05-15T00:01:02Z,42.805,6.029,13.3015,4.60076,2470.637,2023-5-15T02:04:15Z
2023-05-15T00:04:05Z,42.805,6.029,13.3013,4.60070,2470.6,2023-5-15T02:07:18Z
2023-05-15T00:07:08Z,42.805,6.029,13.3015,4.60070,2470.646,2023-5-15T02:10:21Z
2023-05-15T00:10:11Z,42.805,6.029,13.3016,4.60070,2470.614,2023-5-15T02:13:24Z
2023-05-15T00:13:14Z,42.805,6.029,13.3015,4.60074,2470.646,2023-5-15T02:16:28Z
2023-05-15T00:16:17Z,42.805,6.029,13.3010,4.60080,2470.646,2023-5-15T02:19:31Z
2023-05-15T00:19:20Z,42.805,6.029,13.3014,4.60073,2470.661,2023-5-15T02:22:34Z
2023-05-15T00:22:24Z,42.805,6.029,13.3019,4.60074,2470.6,2023-5-15T02:25:37Z
2023-05-15T00:25:27Z,42.805,6.029,13.3015,4.60071,2470.661,2023-5-15T02:28:40Z
2023-05-15T00:28:30Z,42.805,6.029,13.3014,4.60069,2470.646,2023-5-15T02:31:43Z
2023-05-15T00:31:33Z,42.805,6.029,13.3015,4.60069,2470.646,2023-5-15T02:34:46Z
2023-05-15T00:34:36Z,42.805,6.029,13.3018,4.60074,2470.646,2023-5-15T02:37:49Z
2023-05-15T00:37:39Z,42.805,6.029,13.3020,4.60072,2470.646,2023-5-15T02:40:52Z
2023-05-15T00:40:42Z,42.805,6.029,13.3015,4.60072,2470.646,2023-5-15T02:43:55Z
2023-05-15T00:43:45Z,42.805,6.029,13.3014,4.60074,2470.624,2023-5-15T02:46:58Z
2023-05-15T00:46:48Z,42.805,6.029,13.3015,4.60070,2470.646,2023-5-15T02:50:01Z
2023-05-15T00:49:51Z,42.805,6.029,13.3019,4.60072,2470.646,2023-5-15T02:53:05Z
2023-05-15T00:52:54Z,42.805,6.029,13.3011,4.60074,2470.67,2023-5-15T02:56:08Z
2023-05-15T00:55:57Z,42.805,6.029,13.3018,4.60078,2470.646,2023-5-15T02:59:11Z
2023-05-15T00:59:01Z,42.805,6.029,13.3017,4.60074,2470.693,2023-5-15T03:02:14Z
2023-05-15T01:02:04Z,42.805,6.029,13.3015,4.60069,2470.67,2023-5-15T03:05:17Z
2023-05-15T01:05:07Z,42.805,6.029,13.3018,4.60072,2470.67,2023-5-15T03:08:20Z
2023-05-15T01:08:10Z,42.805,6.029,13.3014,4.60072,2470.67,2023-5-15T03:11:23Z
2023-05-15T01:11:13Z,42.805,6.029,13.3015,4.60070,2470.74,2023-5-15T03:14:26Z
2023-05-15T01:14:16Z,42.805,6.029,13.3017,4.60071,2470.717,2023-5-15T03:17:29Z
2023-05-15T01:17:19Z,42.805,6.029,13.3011,4.60072,2470.707,2023-5-15T03:20:32Z
2023-05-15T01:20:22Z,42.805,6.029,13.3014,4.60076,2470.67,2023-5-15T03:23:35Z
2023-05-15T01:23:25Z,42.805,6.029,13.3017,4.60069,2470.67,2023-5-15T03:26:38Z
2023-05-15T01:26:28Z,42.805,6.029,13.3017,4.60072,2470.67,2023-5-15T03:29:42Z
2023-05-15T01:29:31Z,42.805,6.029,13.3014,4.60069,2470.67,2023-5-15T03:32:45Z
2023-05-15T01:32:34Z,42.805,6.029,13.3015,4.60073,2470.707,2023-5-15T03:35:48Z
2023-05-15T01:35:38Z,42.805,6.029,13.3016,4.60072,2470.684,2023-5-15T03:38:51Z
2023-05-15T01:38:41Z,42.805,6.029,13.3015,4.60072,2470.707,2023-5-15T03:41:54Z
2023-05-15T01:41:44Z,42.805,6.029,13.3014,4.60075,2470.717,2023-5-15T03:44:57Z
2023-05-15T01:44:47Z,42.805,6.029,13.3018,4.60069,2470.73,2023-5-15T03:48:00Z
2023-05-15T01:47:50Z,42.805,6.029,13.3018,4.60072,2470.73,2023-5-15T03:51:03Z
2023-05-15T01:50:53Z,42.805,6.029,13.3017,4.60074,2470.717,2023-5-15T03:54:06Z
2023-05-15T01:53:56Z,42.805,6.029,13.3015,4.60075,2470.693,2023-5-15T03:57:09Z
2023-05-15T01:56:59Z,42.805,6.029,13.3017,4.60069,2470.693,2023-5-15T04:00:12Z
2023-05-15T02:00:02Z,42.805,6.029,13.3017,4.60072,2470.73,2023-5-15T04:03:15Z
2023-05-15T02:03:05Z,42.805,6.029,13.3015,4.60072,2470.693,2023-5-15T04:06:18Z
2023-05-15T02:06:08Z,42.805,6.029,13.3013,4.60074,2470.74,2023-5-15T04:09:22Z
2023-05-15T02:09:11Z,42.805,6.029,13.3015,4.60073,2470.693,2023-5-15T04:12:25Z
2023-05-15T02:12:14Z,42.805,6.029,13.3011,4.60077,2470.717,2023-5-15T04:15:28Z
2023-05-15T02:15:17Z,42.805,6.029,13.3014,4.60072,2470.717,2023-5-15T04:18:31Z
2023-05-15T02:18:21Z,42.805,6.029,13.3017,4.60069,2470.73,2023-5-15T04:21:34Z
2023-05-15T02:21:24Z,42.805,6.029,13.3014,4.60074,2470.693,2023-5-15T04:24:37Z
2023-05-15T02:24:27Z,42.805,6.029,13.3016,4.60084,2470.717,2023-5-15T04:27:40Z
2023-05-15T02:27:30Z,42.805,6.029,13.3014,4.60072,2470.707,2023-5-15T04:30:43Z
2023-05-15T02:30:33Z,42.805,6.029,13.3017,4.60079,2470.707,2023-5-15T04:33:46Z
2023-05-15T02:33:36Z,42.805,6.029,13.3019,4.60076,2470.74,2023-5-15T04:36:49Z
2023-05-15T02:36:39Z,42.805,6.029,13.3014,4.60081,2470.74,2023-5-15T04:39:52Z
2023-05-15T02:39:42Z,42.805,6.029,13.3014,4.60075,2470.693,2023-5-15T04:42:55Z
2023-05-15T02:42:45Z,42.805,6.029,13.3014,4.60074,2470.717,2023-5-15T04:45:59Z
2023-05-15T02:45:48Z,42.805,6.029,13.3012,4.60077,2470.73,2023-5-15T04:49:02Z
2023-05-15T02:48:51Z,42.805,6.029,13.3015,4.60071,2470.679,2023-5-15T04:52:05Z
2023-05-15T02:51:55Z,42.805,6.029,13.3018,4.60070,2470.707,2023-5-15T04:55:08Z
2023-05-15T02:54:58Z,42.805,6.029,13.3015,4.60076,2470.717,2023-5-15T04:58:11Z
2023-05-15T02:58:01Z,42.805,6.029,13.3013,4.60074,2470.73,2023-5-15T05:01:14Z
2023-05-15T03:01:04Z,42.805,6.029,13.3014,4.60079,2470.754,2023-5-15T05:04:17Z
2023-05-15T03:04:07Z,42.805,6.029,13.3014,4.60077,2470.717,2023-5-15T05:07:20Z
2023-05-15T03:07:10Z,42.805,6.029,13.3015,4.60073,2470.74,2023-5-15T05:10:23Z
2023-05-15T03:10:13Z,42.805,6.029,13.3014,4.60072,2470.693,2023-5-15T05:13:26Z
2023-05-15T03:13:16Z,42.805,6.029,13.3015,4.60074,2470.717,2023-5-15T05:16:29Z
2023-05-15T03:16:19Z,42.805,6.029,13.3014,4.60077,2470.717,2023-5-15T05:19:32Z
2023-05-15T03:19:22Z,42.805,6.029,13.3016,4.60072,2470.717,2023-5-15T05:22:36Z
2023-05-15T03:22:25Z,42.805,6.029,13.3014,4.60074,2470.74,2023-5-15T05:25:39Z
2023-05-15T03:25:28Z,42.805,6.029,13.3014,4.60072,2470.74,2023-5-15T05:28:42Z
2023-05-15T03:28:31Z,42.805,6.029,13.3014,4.60073,2470.703,2023-5-15T05:31:45Z
2023-05-15T03:31:35Z,42.805,6.029,13.3014,4.60074,2470.74,2023-5-15T05:34:48Z
2023-05-15T03:34:38Z,42.805,6.029,13.3015,4.60072,2470.693,2023-5-15T05:37:51Z
2023-05-15T03:37:41Z,42.805,6.029,13.3014,4.60075,2470.693,2023-5-15T05:40:54Z
2023-05-15T03:40:44Z,42.805,6.029,13.3014,4.60072,2470.73,2023-5-15T05:43:57Z
2023-05-15T03:43:47Z,42.805,6.029,13.3014,4.60076,2470.726,2023-5-15T05:47:00Z
2023-05-15T03:46:50Z,42.805,6.029,13.3018,4.60074,2470.717,2023-5-15T05:50:03Z
2023-05-15T03:49:53Z,42.805,6.029,13.3015,4.60075,2470.73,2023-5-15T05:53:06Z
2023-05-15T03:52:56Z,42.805,6.029,13.3015,4.60077,2470.74,2023-5-15T05:56:09Z
2023-05-15T03:55:59Z,42.805,6.029,13.3015,4.60079,2470.73,2023-5-15T05:59:13Z
2023-05-15T03:59:02Z,42.805,6.029,13.3020,4.60075,2470.73,2023-5-15T06:02:16Z
2023-05-15T04:02:05Z,42.805,6.029,13.3015,4.60074,2470.754,2023-5-15T06:05:19Z
2023-05-15T04:05:08Z,42.805,6.029,13.3012,4.60074,2470.726,2023-5-15T06:08:22Z
2023-05-15T04:08:12Z,42.805,6.029,13.3019,4.60073,2470.73,2023-5-15T06:11:25Z
2023-05-15T04:11:15Z,42.805,6.029,13.3015,4.60075,2470.717,2023-5-15T06:14:28Z
2023-05-15T04:14:18Z,42.805,6.029,13.3015,4.60073,2470.717,2023-5-15T06:17:31Z
2023-05-15T04:17:21Z,42.805,6.029,13.3018,4.60073,2470.754,2023-5-15T06:20:34Z
2023-05-15T04:20:24Z,42.805,6.029,13.3017,4.60075,2470.74,2023-5-15T06:23:37Z
2023-05-15T04:23:27Z,42.805,6.029,13.3013,4.60075,2470.717,2023-5-15T06:26:40Z
2023-05-15T04:26:30Z,42.805,6.029,13.3014,4.60076,2470.754,2023-5-15T06:29:43Z
2023-05-15T04:29:33Z,42.805,6.029,13.3015,4.60074,2470.717,2023-5-15T06:32:46Z
2023-05-15T04:32:36Z,42.805,6.029,13.3017,4.60076,2470.679,2023-5-15T06:35:50Z
2023-05-15T04:35:39Z,42.805,6.029,13.3015,4.60075,2470.74,2023-5-15T06:38:53Z
2023-05-15T04:38:42Z,42.805,6.029,13.3018,4.60075,2470.74,2023-5-15T06:41:56Z
2023-05-15T04:41:45Z,42.805,6.029,13.3015,4.60075,2470.717,2023-5-15T06:44:59Z
2023-05-15T04:44:49Z,42.805,6.029,13.3014,4.60074,2470.693,2023-5-15T06:48:02Z
2023-05-15T04:47:52Z,42.805,6.029,13.3018,4.60075,2470.717,2023-5-15T06:51:05Z
2023-05-15T04:50:55Z,42.805,6.029,13.3014,4.60077,2470.717,2023-5-15T06:54:08Z
2023-05-15T04:53:58Z,42.805,6.029,13.3014,4.60079,2470.707,2023-5-15T06:57:11Z
2023-05-15T04:57:01Z,42.805,6.029,13.3017,4.60075,2470.693,2023-5-15T07:00:14Z
2023-05-15T05:00:04Z,42.805,6.029,13.3016,4.60076,2470.717,2023-5-15T07:03:17Z
2023-05-15T05:03:07Z,42.805,6.029,13.3015,4.60079,2470.717,2023-5-15T07:06:20Z
2023-05-15T05:06:10Z,42.805,6.029,13.3014,4.60076,2470.73,2023-5-15T07:09:23Z
2023-05-15T05:09:13Z,42.805,6.029,13.3014,4.60077,2470.693,2023-5-15T07:12:27Z
2023-05-15T05:12:16Z,42.805,6.029,13.3017,4.60078,2470.693,2023-5-15T07:15:30Z
2023-05-15T05:15:19Z,42.805,6.029,13.3015,4.60076,2470.73,2023-5-15T07:18:33Z
2023-05-15T05:18:22Z,42.805,6.029,13.3018,4.60079,2470.717,2023-5-15T07:21:36Z
2023-05-15T05:21:26Z,42.805,6.029,13.3017,4.60076,2470.73,2023-5-15T07:24:39Z
2023-05-15T05:24:29Z,42.805,6.029,13.3014,4.60076,2470.717,2023-5-15T07:27:42Z
2023-05-15T05:27:32Z,42.805,6.029,13.3017,4.60075,2470.707,2023-5-15T07:30:45Z
2023-05-15T05:30:35Z,42.805,6.029,13.3008,4.60076,2470.67,2023-5-15T07:33:48Z
2023-05-15T05:33:38Z,42.805,6.029,13.3015,4.60075,2470.67,2023-5-15T07:36:51Z
2023-05-15T05:36:41Z,42.805,6.029,13.3012,4.60074,2470.707,2023-5-15T07:39:54Z
2023-05-15T05:39:44Z,42.805,6.029,13.3013,4.60073,2470.693,2023-5-15T07:42:57Z
2023-05-15T05:42:47Z,42.805,6.029,13.3014,4.60080,2470.717,2023-5-15T07:46:00Z
2023-05-15T05:45:50Z,42.805,6.029,13.3015,4.60079,2470.707,2023-5-15T07:49:04Z
2023-05-15T05:48:53Z,42.805,6.029,13.3014,4.60082,2470.717,2023-5-15T07:52:07Z
2023-05-15T05:51:56Z,42.805,6.029,13.3014,4.60079,2470.707,2023-5-15T07:55:10Z
2023-05-15T05:54:59Z,42.805,6.029,13.3015,4.60074,2470.67,2023-5-15T07:58:13Z
2023-05-15T05:58:02Z,42.805,6.029,13.3012,4.60078,2470.693,2023-5-15T08:01:16Z
2023-05-15T06:01:06Z,42.805,6.029,13.3014,4.60077,2470.707,2023-5-15T08:04:19Z
2023-05-15T06:04:09Z,42.805,6.029,13.3019,4.60085,2470.693,2023-5-15T08:07:22Z
2023-05-15T06:07:12Z,42.805,6.029,13.3013,4.60078,2470.67,2023-5-15T08:10:25Z
2023-05-15T06:10:15Z,42.805,6.029,13.3015,4.60079,2470.684,2023-5-15T08:13:28Z
2023-05-15T06:13:18Z,42.805,6.029,13.3013,4.60076,2470.693,2023-5-15T08:16:31Z
2023-05-15T06:16:21Z,42.805,6.029,13.3014,4.60074,2470.646,2023-5-15T08:19:34Z
2023-05-15T06:19:24Z,42.805,6.029,13.3018,4.60074,2470.661,2023-5-15T08:22:37Z
2023-05-15T06:22:27Z,42.805,6.029,13.3015,4.60074,2470.684,2023-5-15T08:25:41Z
2023-05-15T06:25:30Z,42.805,6.029,13.3018,4.60077,2470.661,2023-5-15T08:28:44Z
2023-05-15T06:28:33Z,42.805,6.029,13.3015,4.60075,2470.67,2023-5-15T08:31:47Z
2023-05-15T06:31:38Z,42.805,6.029,13.3017,4.60074,2470.661,2023-5-15T08:34:52Z
2023-05-15T06:34:41Z,42.805,6.029,13.3017,4.60074,2470.67,2023-5-15T08:37:55Z
2023-05-15T06:37:44Z,42.805,6.029,13.3016,4.60075,2470.624,2023-5-15T08:40:58Z
2023-05-15T06:40:47Z,42.805,6.029,13.3016,4.60073,2470.661,2023-5-15T08:44:01Z
2023-05-15T06:43:51Z,42.805,6.029,13.3020,4.60072,2470.646,2023-5-15T08:47:04Z
2023-05-15T06:46:54Z,42.805,6.029,13.3011,4.60072,2470.646,2023-5-15T08:50:07Z
2023-05-15T06:49:57Z,42.805,6.029,13.3011,4.60073,2470.646,2023-5-15T08:53:10Z
2023-05-15T06:53:00Z,42.805,6.029,13.3016,4.60074,2470.67,2023-5-15T08:56:13Z
2023-05-15T06:56:03Z,42.805,6.029,13.3014,4.60073,2470.624,2023-5-15T08:59:16Z
2023-05-15T06:59:06Z,42.805,6.029,13.3015,4.60075,2470.624,2023-5-15T09:02:19Z
2023-05-15T07:02:09Z,42.805,6.029,13.3013,4.60079,2470.646,2023-5-15T09:05:22Z
2023-05-15T07:05:12Z,42.805,6.029,13.3012,4.60074,2470.646,2023-5-15T09:08:25Z
2023-05-15T07:08:15Z,42.805,6.029,13.3020,4.60074,2470.646,2023-5-15T09:11:29Z
2023-05-15T07:11:18Z,42.805,6.029,13.3012,4.60072,2470.661,2023-5-15T09:14:32Z
2023-05-15T07:14:21Z,42.805,6.029,13.3015,4.60072,2470.646,2023-5-15T09:17:35Z
2023-05-15T07:17:24Z,42.805,6.029,13.3012,4.60073,2470.624,2023-5-15T09:20:38Z
2023-05-15T07:20:27Z,42.805,6.029,13.3018,4.60073,2470.6,2023-5-15T09:23:41Z
2023-05-15T07:23:31Z,42.805,6.029,13.3015,4.60073,2470.624,2023-5-15T09:26:44Z
2023-05-15T07:26:34Z,42.805,6.029,13.3014,4.60074,2470.624,2023-5-15T09:29:47Z
2023-05-15T07:29:37Z,42.805,6.029,13.3015,4.60074,2470.577,2023-5-15T09:32:50Z
2023-05-15T07:32:40Z,42.805,6.029,13.3014,4.60073,2470.646,2023-5-15T09:35:53Z
2023-05-15T07:35:43Z,42.805,6.029,13.3016,4.60075,2470.624,2023-5-15T09:38:56Z
2023-05-15T07:38:46Z,42.805,6.029,13.3012,4.60073,2470.6,2023-5-15T09:41:59Z
2023-05-15T07:41:49Z,42.805,6.029,13.3019,4.60074,2470.614,2023-5-15T09:45:02Z
2023-05-15T07:44:52Z,42.805,6.029,13.3013,4.60076,2470.637,2023-5-15T09:48:06Z
2023-05-15T07:47:55Z,42.805,6.029,13.3014,4.60074,2470.624,2023-5-15T09:51:09Z
2023-05-15T07:50:58Z,42.805,6.029,13.3013,4.60072,2470.577,2023-5-15T09:54:12Z
2023-05-15T07:54:01Z,42.805,6.029,13.3013,4.60072,2470.6,2023-5-15T09:57:15Z
2023-05-15T07:57:04Z,42.805,6.029,13.3014,4.60070,2470.6,2023-5-15T10:00:18Z
2023-05-15T08:00:07Z,42.805,6.029,13.3019,4.60077,2470.6,2023-5-15T10:03:21Z
2023-05-15T08:03:11Z,42.805,6.029,13.3015,4.60072,2470.6,2023-5-15T10:06:24Z
2023-05-15T08:06:14Z,42.805,6.029,13.3016,4.60071,2470.577,2023-5-15T10:09:27Z
2023-05-15T08:09:17Z,42.805,6.029,13.3014,4.60071,2470.6,2023-5-15T10:12:30Z
2023-05-15T08:12:20Z,42.805,6.029,13.3016,4.60072,2470.577,2023-5-15T10:15:33Z
2023-05-15T08:15:23Z,42.805,6.029,13.3016,4.60073,2470.553,2023-5-15T10:18:36Z
2023-05-15T08:18:26Z,42.805,6.029,13.3012,4.60074,2470.591,2023-5-15T10:21:39Z
2023-05-15T08:21:29Z,42.805,6.029,13.3015,4.60074,2470.577,2023-5-15T10:24:42Z
2023-05-15T08:24:32Z,42.805,6.029,13.3014,4.60072,2470.577,2023-5-15T10:27:46Z
2023-05-15T08:27:35Z,42.805,6.029,13.3014,4.60074,2470.553,2023-5-15T10:30:49Z
2023-05-15T08:30:37Z,42.805,6.029,13.3014,4.60073,2470.567,2023-5-15T10:33:50Z
2023-05-15T08:33:40Z,42.805,6.029,13.3016,4.60073,2470.577,2023-5-15T10:36:53Z
2023-05-15T08:36:43Z,42.805,6.029,13.3016,4.60073,2470.567,2023-5-15T10:39:56Z
2023-05-15T08:39:46Z,42.805,6.029,13.3014,4.60074,2470.591,2023-5-15T10:43:00Z
2023-05-15T08:42:49Z,42.805,6.029,13.3015,4.60073,2470.567,2023-5-15T10:46:03Z
2023-05-15T08:45:52Z,42.805,6.029,13.3013,4.60073,2470.567,2023-5-15T10:49:06Z
2023-05-15T08:48:55Z,42.805,6.029,13.3014,4.60072,2470.591,2023-5-15T10:52:09Z
2023-05-15T08:51:58Z,42.805,6.029,13.3015,4.60074,2470.6,2023-5-15T10:55:12Z
2023-05-15T08:55:02Z,42.805,6.029,13.3015,4.60073,2470.544,2023-5-15T10:58:15Z
2023-05-15T08:58:05Z,42.805,6.029,13.3015,4.60074,2470.553,2023-5-15T11:01:18Z
2023-05-15T09:01:08Z,42.805,6.029,13.3013,4.60070,2470.553,2023-5-15T11:04:21Z
2023-05-15T09:04:11Z,42.805,6.029,13.3013,4.60072,2470.553,2023-5-15T11:07:24Z
2023-05-15T09:07:14Z,42.805,6.029,13.3015,4.60072,2470.553,2023-5-15T11:10:27Z
2023-05-15T09:10:17Z,42.805,6.029,13.3015,4.60070,2470.53,2023-5-15T11:13:30Z
2023-05-15T09:13:20Z,42.805,6.029,13.3014,4.60073,2470.52,2023-5-15T11:16:33Z
2023-05-15T09:16:23Z,42.805,6.029,13.3015,4.60074,2470.544,2023-5-15T11:19:37Z
2023-05-15T09:19:26Z,42.805,6.029,13.3016,4.60074,2470.553,2023-5-15T11:22:40Z
2023-05-15T09:22:29Z,42.805,6.029,13.3016,4.60074,2470.544,2023-5-15T11:25:43Z
2023-05-15T09:25:32Z,42.805,6.029,13.3015,4.60072,2470.553,2023-5-15T11:28:46Z
2023-05-15T09:28:35Z,42.805,6.029,13.3014,4.60074,2470.53,2023-5-15T11:31:49Z
2023-05-15T09:31:39Z,42.805,6.029,13.3011,4.60073,2470.553,2023-5-15T11:34:52Z
2023-05-15T09:34:42Z,42.805,6.029,13.3016,4.60074,2470.53,2023-5-15T11:37:55Z
2023-05-15T09:37:45Z,42.805,6.029,13.3015,4.60072,2470.507,2023-5-15T11:40:58Z
2023-05-15T09:40:48Z,42.805,6.029,13.3011,4.60073,2470.483,2023-5-15T11:44:01Z
2023-05-15T09:43:51Z,42.805,6.029,13.3015,4.60072,2470.544,2023-5-15T11:47:04Z
2023-05-15T09:46:54Z,42.805,6.029,13.3014,4.60072,2470.52,2023-5-15T11:50:07Z
2023-05-15T09:49:57Z,42.805,6.029,13.3015,4.60070,2470.497,2023-5-15T11:53:10Z
2023-05-15T09:53:00Z,42.805,6.029,13.3019,4.60073,2470.483,2023-5-15T11:56:14Z
2023-05-15T09:56:03Z,42.805,6.029,13.3017,4.60074,2470.53,2023-5-15T11:59:17Z
2023-05-15T09:59:06Z,42.805,6.029,13.3015,4.60071,2470.52,2023-5-15T12:02:20Z
2023-05-15T10:02:09Z,42.805,6.029,13.3017,4.60081,2470.507,2023-5-15T12:05:23Z
2023-05-15T10:05:12Z,42.805,6.029,13.3015,4.60075,2470.53,2023-5-15T12:08:26Z
2023-05-15T10:09:06Z,42.805,6.029,13.3017,4.60074,2470.544,2023-5-15T12:11:17Z
2023-05-15T10:12:09Z,42.805,6.029,13.3017,4.60076,2470.483,2023-5-15T12:14:20Z
2023-05-15T10:15:12Z,42.805,6.029,13.3018,4.60075,2470.507,2023-5-15T12:17:23Z
2023-05-15T10:18:15Z,42.805,6.029,13.3015,4.60071,2470.507,2023-5-15T12:20:26Z
2023-05-15T10:21:18Z,42.805,6.029,13.3019,4.60077,2470.507,2023-5-15T12:23:29Z
2023-05-15T10:24:21Z,42.805,6.029,13.3015,4.60077,2470.507,2023-5-15T12:26:32Z
2023-05-15T10:27:24Z,42.805,6.029,13.3013,4.60074,2470.507,2023-5-15T12:29:36Z
2023-05-15T10:30:28Z,42.805,6.029,13.3014,4.60075,2470.507,2023-5-15T12:32:40Z
2023-05-15T10:33:31Z,42.805,6.029,13.3016,4.60074,2470.544,2023-5-15T12:35:43Z
2023-05-15T10:36:34Z,42.805,6.029,13.3019,4.60071,2470.544,2023-5-15T12:38:46Z
2023-05-15T10:39:37Z,42.805,6.029,13.3015,4.60071,2470.53,2023-5-15T12:41:49Z
2023-05-15T10:42:40Z,42.805,6.029,13.3016,4.60073,2470.53,2023-5-15T12:44:52Z
2023-05-15T10:45:44Z,42.805,6.029,13.3015,4.60072,2470.507,2023-5-15T12:47:55Z
2023-05-15T10:48:47Z,42.805,6.029,13.3013,4.60073,2470.483,2023-5-15T12:50:58Z
2023-05-15T10:51:50Z,42.805,6.029,13.3015,4.60072,2470.53,2023-5-15T12:54:01Z
2023-05-15T10:54:53Z,42.805,6.029,13.3014,4.60073,2470.483,2023-5-15T12:57:04Z
2023-05-15T10:57:56Z,42.805,6.029,13.3015,4.60072,2470.544,2023-5-15T13:00:07Z
2023-05-15T11:00:59Z,42.805,6.029,13.3019,4.60074,2470.52,2023-5-15T13:03:10Z
2023-05-15T11:04:02Z,42.805,6.029,13.3020,4.60072,2470.53,2023-5-15T13:06:14Z
2023-05-15T11:07:05Z,42.805,6.029,13.3012,4.60074,2470.507,2023-5-15T13:09:17Z
2023-05-15T11:10:08Z,42.805,6.029,13.3014,4.60071,2470.53,2023-5-15T13:12:20Z
2023-05-15T11:13:11Z,42.805,6.029,13.3014,4.60072,2470.507,2023-5-15T13:15:23Z
2023-05-15T11:16:14Z,42.805,6.029,13.3015,4.60070,2470.53,2023-5-15T13:18:26Z
2023-05-15T11:19:17Z,42.805,6.029,13.3011,4.60072,2470.507,2023-5-15T13:21:29Z
2023-05-15T11:22:21Z,42.805,6.029,13.3016,4.60072,2470.507,2023-5-15T13:24:32Z
2023-05-15T11:25:24Z,42.805,6.029,13.3015,4.60072,2470.507,2023-5-15T13:27:35Z
2023-05-15T11:28:27Z,42.805,6.029,13.3012,4.60072,2470.507,2023-5-15T13:30:38Z
2023-05-15T11:31:30Z,42.805,6.029,13.3013,4.60075,2470.544,2023-5-15T13:33:41Z
2023-05-15T11:34:33Z,42.805,6.029,13.3019,4.60072,2470.507,2023-5-15T13:36:44Z
2023-05-15T11:37:36Z,42.805,6.029,13.3016,4.60073,2470.507,2023-5-15T13:39:48Z
2023-05-15T11:40:39Z,42.805,6.029,13.3014,4.60072,2470.507,2023-5-15T13:42:51Z
2023-05-15T11:43:42Z,42.805,6.029,13.3016,4.60069,2470.53,2023-5-15T13:45:54Z
2023-05-15T11:46:45Z,42.805,6.029,13.3014,4.60070,2470.52,2023-5-15T13:48:57Z
2023-05-15T11:49:48Z,42.805,6.029,13.3017,4.60069,2470.507,2023-5-15T13:52:00Z
2023-05-15T11:52:51Z,42.805,6.029,13.3017,4.60069,2470.53,2023-5-15T13:55:03Z
2023-05-15T11:55:55Z,42.805,6.029,13.3012,4.60074,2470.507,2023-5-15T13:58:06Z
2023-05-15T11:58:58Z,42.805,6.029,13.3016,4.60075,2470.53,2023-5-15T14:01:09Z
2023-05-15T12:02:01Z,42.805,6.029,13.3015,4.60070,2470.507,2023-5-15T14:04:12Z
2023-05-15T12:05:04Z,42.805,6.029,13.3013,4.60072,2470.53,2023-5-15T14:07:15Z
2023-05-15T12:08:07Z,42.805,6.029,13.3017,4.60072,2470.53,2023-5-15T14:10:18Z
2023-05-15T12:11:10Z,42.805,6.029,13.3019,4.60070,2470.497,2023-5-15T14:13:21Z
2023-05-15T12:14:13Z,42.805,6.029,13.3014,4.60072,2470.53,2023-5-15T14:16:25Z
2023-05-15T12:17:16Z,42.805,6.029,13.3014,4.60070,2470.507,2023-5-15T14:19:28Z
2023-05-15T12:20:19Z,42.805,6.029,13.3016,4.60072,2470.507,2023-5-15T14:22:31Z
2023-05-15T12:23:22Z,42.805,6.029,13.3016,4.60069,2470.52,2023-5-15T14:25:34Z
2023-05-15T12:26:25Z,42.805,6.029,13.3011,4.60073,2470.53,2023-5-15T14:28:37Z
2023-05-15T12:29:28Z,42.805,6.029,13.3014,4.60072,2470.553,2023-5-15T14:31:40Z
2023-05-15T12:32:32Z,42.805,6.029,13.3018,4.60074,2470.567,2023-5-15T14:34:43Z
2023-05-15T12:35:35Z,42.805,6.029,13.3016,4.60072,2470.553,2023-5-15T14:37:46Z
2023-05-15T12:38:38Z,42.805,6.029,13.3016,4.60072,2470.553,2023-5-15T14:40:49Z
2023-05-15T12:41:41Z,42.805,6.029,13.3018,4.60075,2470.553,2023-5-15T14:43:52Z
2023-05-15T12:44:44Z,42.805,6.029,13.3016,4.60078,2470.53,2023-5-15T14:46:55Z
2023-05-15T12:47:47Z,42.805,6.029,13.3016,4.60070,2470.53,2023-5-15T14:49:58Z
2023-05-15T12:50:50Z,42.805,6.029,13.3019,4.60072,2470.53,2023-5-15T14:53:02Z
2023-05-15T12:53:53Z,42.805,6.029,13.3016,4.60075,2470.544,2023-5-15T14:56:05Z
2023-05-15T12:56:56Z,42.805,6.029,13.3015,4.60073,2470.53,2023-5-15T14:59:08Z
2023-05-15T12:59:59Z,42.805,6.029,13.3016,4.60075,2470.553,2023-5-15T15:02:11Z
2023-05-15T13:03:02Z,42.805,6.029,13.3017,4.60081,2470.553,2023-5-15T15:05:14Z
2023-05-15T13:06:05Z,42.805,6.029,13.3019,4.60074,2470.53,2023-5-15T15:08:17Z
2023-05-15T13:09:09Z,42.805,6.029,13.3015,4.60072,2470.567,2023-5-15T15:11:20Z
2023-05-15T13:12:12Z,42.805,6.029,13.3014,4.60069,2470.53,2023-5-15T15:14:23Z
2023-05-15T13:15:15Z,42.805,6.029,13.3019,4.60073,2470.53,2023-5-15T15:17:26Z
2023-05-15T13:18:18Z,42.805,6.029,13.3016,4.60074,2470.553,2023-5-15T15:20:29Z
2023-05-15T13:21:21Z,42.805,6.029,13.3015,4.60076,2470.553,2023-5-15T15:23:32Z
2023-05-15T13:24:24Z,42.805,6.029,13.3015,4.60074,2470.53,2023-5-15T15:26:35Z
2023-05-15T13:27:27Z,42.805,6.029,13.3014,4.60074,2470.567,2023-5-15T15:29:39Z
2023-05-15T13:30:30Z,42.805,6.029,13.3013,4.60077,2470.53,2023-5-15T15:32:42Z
2023-05-15T13:33:33Z,42.805,6.029,13.3015,4.60072,2470.577,2023-5-15T15:35:45Z
2023-05-15T13:36:36Z,42.805,6.029,13.3014,4.60069,2470.553,2023-5-15T15:38:48Z
2023-05-15T13:39:39Z,42.805,6.029,13.3012,4.60069,2470.553,2023-5-15T15:41:51Z
2023-05-15T13:42:43Z,42.805,6.029,13.3015,4.60077,2470.553,2023-5-15T15:44:54Z
2023-05-15T13:45:46Z,42.805,6.029,13.3017,4.60075,2470.53,2023-5-15T15:47:57Z
2023-05-15T13:48:49Z,42.805,6.029,13.3015,4.60072,2470.553,2023-5-15T15:51:00Z
2023-05-15T13:51:52Z,42.805,6.029,13.3015,4.60076,2470.577,2023-5-15T15:54:03Z
2023-05-15T13:54:55Z,42.805,6.029,13.3015,4.60077,2470.577,2023-5-15T15:57:06Z
2023-05-15T13:57:58Z,42.805,6.029,13.3015,4.60077,2470.591,2023-5-15T16:00:09Z
2023-05-15T14:01:01Z,42.805,6.029,13.3014,4.60070,2470.553,2023-5-15T16:03:12Z
2023-05-15T14:04:04Z,42.805,6.029,13.3018,4.60073,2470.577,2023-5-15T16:06:16Z
2023-05-15T14:07:07Z,42.805,6.029,13.3016,4.60074,2470.591,2023-5-15T16:09:19Z
2023-05-15T14:10:10Z,42.805,6.029,13.3015,4.60081,2470.6,2023-5-15T16:12:22Z
2023-05-15T14:13:13Z,42.805,6.029,13.3015,4.60074,2470.577,2023-5-15T16:15:25Z
2023-05-15T14:16:16Z,42.805,6.029,13.3018,4.60070,2470.6,2023-5-15T16:18:28Z
2023-05-15T14:19:20Z,42.805,6.029,13.3016,4.60075,2470.591,2023-5-15T16:21:31Z
2023-05-15T14:22:23Z,42.805,6.029,13.3015,4.60077,2470.6,2023-5-15T16:24:34Z
2023-05-15T14:25:26Z,42.805,6.029,13.3013,4.60072,2470.6,2023-5-15T16:27:37Z
2023-05-15T14:28:29Z,42.805,6.029,13.3019,4.60075,2470.563,2023-5-15T16:30:40Z
2023-05-15T14:31:31Z,42.805,6.029,13.3014,4.60072,2470.591,2023-5-15T16:33:42Z
2023-05-15T14:34:34Z,42.805,6.029,13.3015,4.60070,2470.553,2023-5-15T16:36:45Z
2023-05-15T14:37:37Z,42.805,6.029,13.3016,4.60078,2470.614,2023-5-15T16:39:48Z
2023-05-15T14:40:40Z,42.805,6.029,13.3015,4.60077,2470.6,2023-5-15T16:42:51Z
2023-05-15T14:43:43Z,42.805,6.029,13.3019,4.60079,2470.661,2023-5-15T16:45:55Z
2023-05-15T14:46:46Z,42.805,6.029,13.3016,4.60074,2470.624,2023-5-15T16:48:58Z
2023-05-15T14:49:49Z,42.805,6.029,13.3017,4.60073,2470.577,2023-5-15T16:52:01Z
2023-05-15T14:52:52Z,42.805,6.029,13.3014,4.60073,2470.567,2023-5-15T16:55:04Z
2023-05-15T14:55:55Z,42.805,6.029,13.3014,4.60071,2470.6,2023-5-15T16:58:07Z
2023-05-15T14:58:59Z,42.805,6.029,13.3014,4.60071,2470.637,2023-5-15T17:01:10Z
2023-05-15T15:02:02Z,42.805,6.029,13.3011,4.60072,2470.6,2023-5-15T17:04:13Z
2023-05-15T15:05:05Z,42.805,6.029,13.3015,4.60073,2470.646,2023-5-15T17:07:16Z
2023-05-15T15:08:08Z,42.805,6.029,13.3014,4.60069,2470.624,2023-5-15T17:10:19Z
2023-05-15T15:11:11Z,42.805,6.029,13.3015,4.60074,2470.577,2023-5-15T17:13:22Z
2023-05-15T15:14:14Z,42.805,6.029,13.3015,4.60072,2470.577,2023-5-15T17:16:25Z